Terminal Aerodrome Forecast
Issued by NWS Amarillo, TX

Home | Current Version | Previous Version | Text Only | Print | Product List | Glossary On
Versions: 1 2 3 4 5 6 7 8 9 10 11 12 13 14 15 16 17 18 19
000
FTUS44 KAMA 221100
TAFDHT
TAF
KDHT 221120Z 2212/2312 15008KT P6SM BKN020
     FM221700 18015G25KT P6SM BKN070
     FM230100 18010KT P6SM BKN100=

USA.gov is the U.S. government's official web portal to all federal, state and local government web resources and services.